Change the Weather History Date:

Friday, June 15, 2012

  Actual Average Record
Temperature  
Mean Temperature 58 °F 61 °F  
Max Temperature 72 °F 72 °F 96 °F (1969)
Min Temperature 44 °F 50 °F 38 °F (1928)
Degree Days  
Heating Degree Days 7 5  
Month to date heating degree days 77 105  
Since 1 June heating degree days 77 105  
Since 1 July heating degree days 13850 13614  
Cooling Degree Days 0 1  
Month to date cooling degree days 7 2  
Year to date cooling degree days 7 3  
Since 1 June cooling degree days 7 2  
Growing Degree Days 8 (Base 50)    
Moisture  
Dew Point 42 °F    
Average Humidity 57    
Maximum Humidity 90    
Minimum Humidity 17    
Precipitation  
Precipitation T in 0.05 in 0.77 in (1977)
Month to date precipitation 0.82 0.58  
Year to date precipitation 3.47 2.74  
Snow  
Snow 0.00 in 0.00 in 0.00 in (2002)
Month to date snowfall 0.0 0.0  
Since 1 June snowfall 0.0 0.0  
Since 1 July snowfall 57.4 65.0  
Snow Depth 0.00 in    
Sea Level Pressure  
Sea Level Pressure 29.69 in    
Wind  
Wind Speed 3 mph (ENE)    
Max Wind Speed 15 mph    
Max Gust Speed 21 mph    
Visibility 10 miles    
Events Rain    
T = Trace of Precipitation, MM = Missing Value Source: NWS Daily Summary

Daily Weather History Graph

Daily Weather History Graph

Search for Another Location

Airport or City:

Trip Planner

Search our weather history database for the weather conditions in past years. The results will help you decide how hot, cold, wet, or windy it might be!

Date:

Astronomy

Jun. 15, 2012 Rise Set
Actual Time 3:01 AM AKDT 12:43 AM AKDT
Civil Twilight Sun does not rise Sun does not rise
Nautical Twilight Sun does not rise Sun does not rise
Astronomical Twilight Sun does not rise Sun does not rise
Moon 2:00 AM AKDT (6/15) 8:12 PM AKDT (6/15)
Length of Visible Light 24h 00m
Length of Day
21h 41m
Waning Crescent, 13% of the Moon is Illuminated
Jun 15
Waning Crescent
Jun 19
New
Jun 26
First Quarter
Jul 3
Full
Jul 10
Last Quarter

Hourly Weather History & Observations

Time (AKDT) Temp. Windchill Dew Point Humidity Pressure Visibility Wind Dir Wind Speed Gust Speed Precip Events Conditions
12:53 AM 50.0 °F - 46.9 °F 89% 29.84 in 10.0 mi Calm Calm - N/A   Mostly Cloudy
1:53 AM 48.9 °F - 46.0 °F 90% 29.84 in 10.0 mi NE 3.5 mph - N/A   Mostly Cloudy
2:53 AM 48.9 °F - 45.0 °F 86% 29.83 in 10.0 mi Calm Calm - N/A   Mostly Cloudy
3:53 AM 46.9 °F - 44.1 °F 90% 29.83 in 10.0 mi Calm Calm - N/A   Mostly Cloudy
4:53 AM 45.0 °F 42.6 °F 42.1 °F 90% 29.82 in 10.0 mi ENE 4.6 mph - N/A   Mostly Cloudy
5:53 AM 46.9 °F - 43.0 °F 86% 29.81 in 10.0 mi NE 4.6 mph - N/A   Mostly Cloudy
6:53 AM 48.0 °F - 44.1 °F 86% 29.81 in 10.0 mi NE 3.5 mph - N/A   Mostly Cloudy
7:53 AM 53.1 °F - 46.0 °F 77% 29.80 in 10.0 mi Calm Calm - N/A   Mostly Cloudy
8:53 AM 55.0 °F - 45.0 °F 69% 29.79 in 10.0 mi Calm Calm - N/A   Mostly Cloudy
9:53 AM 59.0 °F - 46.0 °F 62% 29.78 in 10.0 mi Calm Calm - N/A   Mostly Cloudy
10:53 AM 61.0 °F - 44.1 °F 54% 29.76 in 10.0 mi ESE 3.5 mph - N/A   Scattered Clouds
11:53 AM 64.9 °F - 42.1 °F 43% 29.73 in 10.0 mi SSE 4.6 mph - N/A   Scattered Clouds
12:53 PM 69.1 °F - 39.0 °F 33% 29.71 in 10.0 mi East 4.6 mph - N/A   Scattered Clouds
1:53 PM 70.0 °F - 37.0 °F 30% 29.68 in 10.0 mi North 12.7 mph - N/A   Scattered Clouds
2:53 PM 64.9 °F - 39.9 °F 40% 29.65 in 10.0 mi East 11.5 mph 18.4 mph N/A Rain Light Rain
3:08 PM 66.2 °F - 33.8 °F 30% 29.64 in 10.0 mi WNW 9.2 mph 20.7 mph 0.00 in Rain Light Rain
3:53 PM 70.0 °F - 35.1 °F 28% 29.63 in 10.0 mi Calm Calm - 0.00 in   Mostly Cloudy
4:53 PM 69.1 °F - 37.9 °F 32% 29.61 in 10.0 mi East 9.2 mph - N/A   Mostly Cloudy
5:53 PM 69.1 °F - 34.0 °F 27% 29.60 in 10.0 mi ESE 4.6 mph - N/A   Mostly Cloudy
6:53 PM 69.1 °F - 36.0 °F 30% 29.57 in 10.0 mi SE 8.1 mph - N/A   Mostly Cloudy
7:53 PM 66.0 °F - 41.0 °F 40% 29.56 in 10.0 mi SSE 11.5 mph - N/A   Mostly Cloudy
8:41 PM 64.4 °F - 42.8 °F 45% 29.54 in 10.0 mi ENE 15.0 mph - N/A   Mostly Cloudy
8:53 PM 64.0 °F - 43.0 °F 46% 29.55 in 10.0 mi NE 12.7 mph - N/A   Mostly Cloudy
9:53 PM 57.9 °F - 46.0 °F 65% 29.53 in 10.0 mi ENE 5.8 mph - N/A   Mostly Cloudy
10:53 PM 57.0 °F - 46.0 °F 67% 29.52 in 10.0 mi East 4.6 mph - N/A   Mostly Cloudy
11:53 PM 54.0 °F - 45.0 °F 72% 29.50 in 10.0 mi North 3.5 mph - N/A   Mostly Cloudy